COSMOS 1832

Satellite information

Favourite Embed

Satellite Type and Status

PAYLOADIN ORBIT

Key statistics

Satellite COSMOS 1832 at a glance.

Uptime

14162

Days in orbit

Revolutions

≈ 12.6

Per day

Orbit

LEO

Low Earth Orbit

Inclination

82.6

Latest

Satellite identification and parameters

Extended collection of information and parameters for COSMOS 1832.

Object identification

Identified? True

Debris? False

Object name: COSMOS 1832

International designator: 1987-026F

Object number (NORAD): 17587

Object ID (CCSDS): 17587

Country: COMMONWEALTH OF INDEPENDENT STATES (CIS)

Current information (Y/N): Y

RCS size: LARGE

Orbital parameters

Period: 113.893 minutes

Inclination: 82.5686 deg

SMA: 7783.223 km

Apoapsis: 1411.26 km

Periapsis: 1398.915 km

RAAN: 316.615 deg

Eccentricy: 0.00079303

Argument of periapsis: 228.2424 deg

Mean anomaly: 199.8174 deg

Mean motion: 12.64339102 rev/day

Mean motion (dot): 0.00000006 rev/day2

B* drag term: -0.000023707796 1/REarth

Two-line elements (TLE)

Creation date: Dec. 20, 2025, 3:40 a.m.

Reference frame: TEME

Reference center: EARTH

Epoch: Dec. 19, 2025, 11:08 p.m. UTC

TLE line 0: 0 COSMOS 1832

TLE line 1: 1 17587U 87026F 25353.96447284 .00000006 00000-0 -23708-4 0 9994

TLE line 2: 2 17587 82.5686 316.6150 0007930 228.2424 199.8174 12.64339102789059

Live tracking on map

Real-time ground track for satellite COSMOS 1832.

In-orbit conjunctions

There are no conjunctions computed for COSMOS 1832, at the moment. Check back to stay up to date, as we update our databases every day.

Go to all conjunctions

Associated space launch

Second generation store-dump military communications satellite

COSMOS 1832 was lifted into orbit during the mission ‘Tsiklon-3 | Strela-3 19 to 24’, on board a Tsiklon-3 space rocket.

The launch took place on March 13, 1987, 1:11 p.m. from 32/2.

For more information about the launch, click the button.

Launch to space Tsiklon-3 | Strela-3 19 to 24
Tsiklon-3 | Strela-3 19 to 24

Agency: N/A

Status: Launch Successful

Launch date: March 13, 1987, 1:11 p.m. UTC

Rocket: Tsiklon-3

Launch pad: 32/2

Location: Plesetsk Cosmodrome, Russian Federation

...

Latest news about this satellite

There are no fresh news available about this satellite. Check back as we update our databases every day.


Newsletter sign-up

Weekly statistics, charts and insights to help you stay on top of the space industry.